Location: Goettingen
(51.5300°N, 9.9433°E)
Time: 19:58:44
(UTC+02:00)

X-37B - Pass Details

Date: 29 September 2021
Orbit: 385 x 389 km, 45.0° (Epoch: 13 October)

Event Time Altitude Azimuth Distance (km) Brightness Sun altitude
Exits shadow 06:35:01 - 246° (WSW) 1,483 2.9 -7.5°
Reaches altitude 10° 06:35:14 10° 244° (WSW) 1,413 2.8 -7.4°
Maximum altitude 06:37:40 20° 194° (SSW) 960 2.4 -7.1°
Drops below altitude 10° 06:40:05 10° 144° (SE) 1,412 3.9 -6.7°
Sets 06:42:29 0° 127° (SE) 2,266 5.3 -6.3°
